{"data":{"norad_id":87129,"intl_designator":"","name":"UNKNOWN","alt_names":[],"object_type":"UNKNOWN","status":"UNKNOWN","operator":null,"country":null,"launch_date":null,"launch_site_code":null,"launch_vehicle":null,"mission":null,"orbit_class":"UNKNOWN","rcs_meters":null,"size_class":null,"mass_kg":null,"dimensions":null,"purposes":[],"wikipedia_slug":null,"has_3d_model":false,"image_url":null,"decayed_at":null,"tle_current":{"epoch":"2026-09-16T05:19:28.287552Z","epoch_age_seconds":387791,"freshness":"STALE","line1":"1 87129U          26259.22185518  .00000125  00000+0  12348-2 0  9990","line2":"2 87129 102.2621 358.4799 0031186 286.7817  72.9827 12.42921997581146","mean_motion":12.42921997,"eccentricity":0.0031186,"inclination_deg":102.2621,"raan_deg":358.4799,"arg_perigee_deg":286.7817,"mean_anomaly_deg":72.9827,"bstar":0.0012348,"rev_number":58114,"period_min":115.8560234251,"perigee_km":1469.6899529972,"apogee_km":1518.7915475011,"semimajor_km":7872.3777502491,"source":"CELESTRAK","updated_at":"2026-09-20T09:00:32.450316Z"}}}